Regional Weather Roundup
Issued by NWS

Home | Current Version | Previous Version | Text Only | Print | Product List | Glossary On
Versions: 1 2 3 4 5 6 7 8 9 10 11 12 13 14 15 16 17 18 19 20 21 22 23 24 25 26 27 28 29 30 31 32 33 34 35 36 37 38 39 40 41 42 43 44 45 46 47 48 49 50
000
ASUS46 KSTO 290615
RWRCA

NORTHERN AND CENTRAL CA REGIONAL WEATHER ROUNDUP
NATIONAL WEATHER SERVICE SACRAMENTO CA
1100 PM PDT SUN MAY 28 2017

NOTE: FAIR INDICATES FEW OR NO CLOUDS BELOW 12,000 FEET WITH NO
SIGNIFICANT WEATHER AND/OR OBSTRUCTIONS TO VISIBILITY.

CAZ001-003-290700-
NORTHWEST AREA

CITY           SKY/WX    TMP DP  RH WIND       PRES   REMARKS
CRESCENT CITY  CLOUDY    52  51  97 NW10      30.12F
UKIAH          CLEAR     59  50  72 CALM      30.00R
$$

CAZ006-505>513-290700-
BAY AREA

CITY           SKY/WX    TMP DP  RH WIND       PRES   REMARKS
SANTA ROSA     CLEAR     53  50  89 S3        30.00R
SAN RAFAEL     N/A       54  MM  MM MISG
NAPA           CLEAR     56  51  84 SW7       30.01R
CONCORD        CLEAR     57  51  80 S16G22    30.00R
OAKLAND CITY   N/A      MM  MM  MM MISG
OAKLAND        CLOUDY    57  52  83 W12       30.05S
SAN FRAN CITY  N/A       53  MM  86 MISG
SAN FRAN ARPT  CLOUDY    54  49  83 W20       30.05S
LIVERMORE      PTCLDY    53  50  89 W7        30.02R
HAYWARD        CLOUDY    57  49  74 W9        30.04S
REDWOOD CITY   N/A       54  MM  84 MISG
MOFFETT ARPT   CLEAR     55  51  86 NW8       30.06R
SAN JOSE ARPT  MOCLDY    57  52  83 N7        30.05S
$$
CAZ034-037-514>518-290700-
CENTRAL COAST

CITY           SKY/WX    TMP DP  RH WIND       PRES   REMARKS
WATSONVILLE    CLEAR     53  53 100 E3        30.05R
SALINAS        CLOUDY    56  51  84 W12       30.04F
MONTEREY       CLOUDY    54  51  90 SW10      30.06F
SAN LUIS OBISP CLOUDY    55  52  89 NW8       30.03R
SANTA MARIA    CLOUDY    53  52  96 NW9       30.04R
$$
CAZ015-016-290700-
NORTHERN SACRAMENTO VALLEY

CITY           SKY/WX    TMP DP  RH WIND       PRES   REMARKS
REDDING        CLEAR     73  60  63 N3        29.92R
RED BLUFF      CLEAR     74  57  55 CALM      29.92R
OROVILLE       CLEAR     74  58  57 E5        29.93R
$$
CAZ016>018-290700-
SOUTHERN SACRAMENTO VALLEY

CITY           SKY/WX    TMP DP  RH WIND       PRES   REMARKS
AUBURN         CLEAR     70  57  64 E3        29.98F
BEALE AFB      CLEAR     70  59  69 SE7       29.91R
LINCOLN        FAIR      66  55  68 S5        29.92S
MARYSVILLE     CLEAR     71  61  70 S8        29.92R
SAC INTL ARPT  CLEAR     62  56  80 SE9       29.92R
MATHER AIRPORT NOT AVBL
DOWNTOWN SAC   N/A       63  MM  MM MISG
SAC EXEC ARPT    N/A    N/A N/A N/A MISG        N/A
VACAVILLE      CLEAR     66  54  65 SW9       29.93S
TRAVIS AFB     CLEAR     57  53  86 SW25      29.92S
$$
CAZ019>021-290700-
SAN JOAQUIN VALLEY

CITY           SKY/WX    TMP DP  RH WIND       PRES   REMARKS
STOCKTON       CLEAR     63  53  70 W12       29.94S
MODESTO        CLEAR     70  53  54 N9        29.93R
MERCED         CLEAR     72  53  51 NW12      29.92R
LEMOORE        CLEAR     71  50  47 NW8       29.93R
FRESNO         CLEAR     76  57  51 NW12      29.92S
HANFORD        CLEAR     74  56  53 NW8       29.92S
PORTERVILLE      N/A     74  58  57 NE3       29.94S
BAKERSFIELD    CLEAR     76  53  44 NE5       29.92S
$$
CAZ011-012-071-290700-
NORTHERN MOUNTAINS

CITY           SKY/WX    TMP DP  RH WIND       PRES   REMARKS
YREKA          CLEAR     66  52  60 NE7       30.05R
MOUNT SHASTA   CLEAR     56  34  43 CALM      30.09R
ALTURAS        CLEAR     65  36  34 VRB6      30.12R
$$
CAZ011-012-071-290700-
SIERRA NEVADA MTNS

CITY           SKY/WX    TMP DP  RH WIND       PRES   REMARKS
BLUE CANYON    CLEAR     62  48  60 NE5       30.19S
TRUCKEE        CLEAR     46  37  71 CALM      30.23S
TAHOE VLY ARPT CLEAR     50  39  66 S3        30.24S
MAMMOTH LAKES  FAIR      50  32  49 CALM      30.27S
$$




USA.gov is the U.S. government's official web portal to all federal, state and local government web resources and services.